SCP
0 0 0 0 0 0 0 0 0 0 0 0 0 0 0 0 0 0 0 0 0 0 0 0 0 0 0 0 0 0 0 0 0 0 0 0 0 0 0 0 0 0 0
0 0 0 0 0 0 0 0 0 0 0 0 0 0 0 0 0 0 0 0 0 0 0 0 0 0 0 0 0 0 0 0 0 0 0 0 0 0 0 0 0 0 0
0 0 0 0 0 0 0 0 0 0 0 0 0 0 0 0 0 0 0 0 0 0 0 0 0 0 0 0 0 0 0 0 0 0 0 0 0 0 0 0 0 0 0
0 0 0 0 0 0 0 0 0 0 0 0 0 0 0 0 0 0 0 0 0 0 0 0 0 0 0 0 0 0 0 0 0 0 0 0 0 0 0 0 0 0 0
0 0 0 0 0 0 0 0 0 0 0 0 0 0 0 0 0 0 0 0 0 0 0 0 0 0 0 0 0 0 0 0 0 0 0 0 0 0 0 0 0 0 0
0 0 0 0 0 0 0 0 0 0 0 0 0 0 0 0 0 0 0 0 0 0 0 0 0 0 0 0 0 0 0 0 0 0 0 0 0 0 0 0 0 0 0
0 0 0 0 0 0 0 0 0 0 0 0 0 0 0 0 0 0 0 0 0 0 0 0 0 0 0 0 0 0 0 0 0 0 0 0 0 0 0 0 0 0 0
0 0 0 0 0 0 0 0 0 0 0 0 0 0 0 0 0 0 0 0 0 0 0 0 0 0 0 0 0 0 0 0 0 0 0 0 0 0 0 0 0 0 0
0 0 0 0 0 0 0 0 0 0 0 0 0 0 0 0 0 0 0 0 0 0 0 0 0 0 0 0 0 0 0 0 0 0 0 0 0 0 0 0 0 0 0
0 0 0 0 0 0 0 0 0 0 0 0 0 0 0 0 0 0 0 0 0 0 0 0 0 0 0 0 0 0 0 0 0 0 0 0 0 0 0 0 0 0 0
0 0 0 0 0 0 0 0 0 0 0 0 0 0 0 0 0 0 0 0 0 0 0 0 0 0 0 0 0 0 0 0 0 0 0 0 0 0 0 0 0 0 0
-0 -0 -0 -0 0 0 0 0 0 0 0 0 0 0 0 0 0 0 0 0 0 0 0 0 0 0 0 0 0 0 0 0 0 0 0 0 0 0 0 0 0 0 0
-0 -0 -0 -0 -0 -0 -0 0 0 0 0 0 0 0 0 0 0 0 0 0 0 0 0 0 0 0 0 0 0 0 0 0 0 0 0 0 0 0 0 0 0 0 0
-0 -0 -0 -0 -0 -0 0 0 0 0 0 0 0 0 0 0 0 0 0 0 0 0 0 0 0 0 0 0 0 0 0 0 0 0 0 0 0 0 0 0 0 0 0
-0 -0 -0 -0 0 0 0 0 0 0 0 0 0 0 0 0 0 0 0 0 0 0 0 0 0 0 0 0 0 0 0 0 0 0 0 0 0 0 0 0 0 0 0
0 0 0 0 0 0 0 0 -0 0 0 0 0 0 0 0 0 0 0 0 0 0 0 0 0 0 0 0 0 0 0 0 0 0 0 0 0 0 0 0 0 0 0
0 0 0 0 0 0 0 0 0 0 0 0 0 0 0 0 0 0 0 0 0 0 0 0 -0 0 0 0 0 0 0 0 0 0 0 0 0 0 0 0 0 0 0
0 0 0 0 0 0 0 0 0 0 0 0 0 0 0 0 0 0 0 0 0 0 0 0 0 0 0 0 0 0 0 0 0 0 0 0 0 0 0 0 0 0 0
0 0 0 0 0 0 0 0 0 0 0 0 0 0 0 0 0 0 0 0 0 0 0 0 0 0 0 0 0 0 0 0 0 0 0 0 0 0 0 0 0 0 0
0 0 0 0 0 0 0 0 0 0 0 0 0 0 0 0 0 0 0 0 0 0 0 0 0 0 0 0 0 0 0 0 0 0 0 0 0 0 0 0 0 0 0
-0 -0 0 0 0 0 0 0 0 0 0 0 0 0 0 0 0 0 0 0 0 0 0 0 0 0 0 0 0 0 0 0 0 0 0 0 0 0 0 0 0 0 0
-0 -0 0 0 0 0 0 0 0 0 0 0 0 0 0 0 0 0 0 0 0 0 0 0 0 0 0 0 0 0 0 0 0 0 0 0 0 0 0 0 0 0 0
0 0 0 0 0 0 0 0 0 0 -0 -0 -0 0 0 0 0 0 0 0 0 0 0 0 0 0 0 0 0 0 0 0 0 0 0 0 0 0 0 0 0 0 0
0 0 0 0 0 0 0 0 0 0 0 0 -0 0 0 0 0 0 0 0 0 0 0 0 0 0 0 0 0 0 0 0 0 0 0 0 0 0 0 0 0 0 0
0 0 0 0 0 0 0 0 0 0 0 0 -0 0 0 0 0 0 0 0 0 0 0 0 0 0 0 0 0 0 0 0 0 0 0 0 0 0 0 0 0 0 0
0 0 0 0 0 0 0 0 0 0 0 0 0 0 0 0 0 0 0 0 0 0 0 0 0 0 0 0 0 0 0 0 0 0 0 0 0 0 0 0 0 0 0
Wind_Speed
3 4 11 11 11 11 11 11 11 11 11 11 11 11 11 11 11 10 10 9 9 9 8 8 7 7 7 7 6 6 6 6 6 5 5 4 4 5 5 5 4 2 4
6 7 11 11 12 12 11 11 11 11 11 11 10 10 10 10 10 9 9 9 8 7 7 7 7 7 6 6 5 6 6 6 5 5 5 4 3 4 4 5 4 3 5
9 7 9 12 12 12 12 11 11 11 10 10 10 10 10 9 9 9 8 8 7 7 6 6 6 6 5 5 5 5 5 5 5 5 5 2 1 3 4 4 4 4 5
9 7 8 12 12 11 11 11 11 11 10 9 9 9 9 9 8 8 7 7 6 6 6 5 5 5 5 5 4 4 4 4 4 5 2 1 0 3 4 4 4 5 5
8 7 9 13 12 11 11 10 10 10 10 9 9 8 8 8 8 7 7 6 5 5 5 5 5 5 5 4 5 5 5 4 4 4 2 1 0 3 4 4 5 5 5
8 7 9 13 12 11 11 10 10 9 9 8 8 7 7 7 7 6 6 5 5 5 4 4 4 4 4 4 4 5 5 4 4 3 2 0 0 2 4 5 5 5 5
8 7 8 13 12 11 10 10 9 9 8 7 7 6 6 5 5 5 4 4 4 4 4 3 3 3 4 4 4 5 5 4 2 2 1 0 1 3 4 4 5 5 5
10 7 7 12 12 11 10 9 8 8 6 6 5 4 4 3 3 3 2 2 2 2 2 3 3 3 4 4 4 5 5 4 3 3 2 1 2 4 4 4 4 4 4
8 7 5 5 7 9 10 9 7 7 5 4 3 2 1 1 1 0 1 1 2 2 2 3 4 4 4 5 5 5 4 4 2 1 1 0 3 4 4 4 4 4 4
6 5 5 4 3 3 4 7 7 6 4 3 2 2 1 1 2 2 2 2 3 3 3 4 5 5 6 6 5 5 5 3 1 1 1 1 3 4 4 4 4 4 4
6 4 4 4 3 3 3 5 4 4 3 2 2 3 2 1 2 2 3 4 4 4 4 5 6 6 6 6 6 5 3 1 1 1 1 2 3 3 3 4 4 4 4
5 5 4 4 4 4 4 2 1 0 0 1 1 2 1 1 1 1 3 4 4 5 6 6 7 7 5 2 4 4 1 1 1 1 1 3 3 3 3 3 4 4 4
6 6 5 5 4 4 2 2 1 0 0 1 1 0 0 1 1 1 1 2 3 4 3 4 4 3 2 2 2 1 1 0 1 1 1 3 3 3 3 3 4 4 4
6 5 5 5 4 3 2 2 2 1 0 0 1 1 1 1 1 1 1 1 2 1 2 2 2 2 2 2 2 1 1 1 1 1 2 3 3 3 3 3 4 4 4
6 5 5 4 4 3 3 2 2 1 1 1 1 2 2 2 1 1 1 1 2 1 1 2 2 2 2 2 1 1 1 1 1 1 1 3 2 2 3 3 4 4 5
6 5 4 4 4 4 3 2 1 1 1 2 2 2 2 2 2 2 2 2 2 2 1 1 2 2 2 1 2 1 1 0 0 1 1 1 2 2 2 3 4 4 5
6 5 5 5 4 4 3 3 2 2 2 2 2 3 3 3 2 2 2 2 2 2 2 2 2 2 2 2 2 2 1 1 0 1 1 1 1 2 2 3 3 4 5
6 6 5 5 5 4 4 3 2 2 3 2 2 3 4 3 3 2 2 2 2 2 2 2 2 2 2 2 2 2 1 1 1 0 1 1 1 1 1 1 3 4 5
6 6 5 5 5 4 4 3 3 3 3 2 2 2 3 3 3 2 1 2 2 2 2 2 2 1 1 2 2 2 2 1 1 0 0 1 1 1 0 1 2 3 4
5 5 5 5 4 5 4 3 3 4 3 2 2 2 3 2 3 2 2 2 2 2 2 2 2 2 1 1 2 3 3 2 2 1 0 0 0 1 1 1 0 1 3
5 5 5 5 4 4 3 2 2 2 1 1 1 1 2 2 2 2 2 2 2 2 2 2 1 2 2 1 2 3 4 3 3 2 1 1 1 0 1 1 1 1 1
5 5 5 5 4 4 3 2 2 2 1 0 1 1 1 1 1 1 1 1 1 1 3 2 2 1 2 2 2 2 3 4 4 3 2 1 1 1 1 1 1 1 1
5 6 6 5 5 4 3 3 3 3 3 2 2 1 2 1 1 1 1 1 1 1 1 1 1 1 1 2 1 2 2 1 3 3 3 2 2 1 0 0 1 1 1
5 5 6 5 4 4 4 4 3 2 1 2 2 2 2 1 1 0 1 1 1 0 1 1 1 1 1 1 1 1 2 3 1 2 3 3 2 1 1 1 1 1 1
5 5 5 5 4 3 4 4 4 2 1 1 1 1 2 2 2 1 1 1 1 1 1 1 1 1 1 1 0 0 1 1 1 2 1 3 3 2 1 1 1 1 1
4 5 5 5 3 3 3 4 4 3 2 1 1 1 2 2 2 2 1 1 1 1 1 1 0 0 0 1 1 1 1 1 1 2 1 1 2 2 2 1 1 1 1
Wind_Direction
134 138 125 118 112 108 106 104 102 99 97 96 92 90 90 91 89 86 85 82 80 75 71 69 69 68 65 63 60 59 55 52 50 49 44 45 50 59 66 70 64 54 69
142 134 124 119 115 110 106 103 102 101 98 95 92 89 88 88 88 85 84 81 79 77 71 66 62 61 61 59 55 51 45 39 43 36 32 35 44 57 73 74 69 66 66
131 127 124 120 116 112 108 105 101 99 96 93 91 88 88 87 86 84 82 79 75 72 67 64 56 52 52 49 42 38 34 29 29 24 21 15 32 74 85 79 75 74 75
130 127 125 121 117 113 109 105 101 98 95 93 92 90 88 86 84 81 78 75 71 65 63 61 52 46 43 36 30 24 21 17 16 10 15 345 43 84 88 83 83 87 87
126 124 127 122 119 115 112 108 105 102 98 95 92 90 88 85 82 78 76 73 70 66 63 56 46 40 35 27 21 13 6 6 10 6 3 354 80 100 94 84 87 92 94
127 128 132 127 124 120 117 113 109 105 101 95 93 91 89 85 80 75 71 67 67 62 56 49 36 27 25 17 8 2 355 359 9 1 2 25 130 115 105 96 91 92 92
135 136 138 133 129 127 123 119 115 111 108 103 99 96 90 84 79 76 73 66 61 52 42 34 17 2 359 356 350 348 346 348 356 349 358 210 167 130 116 109 100 92 92
141 141 141 140 138 135 131 129 127 124 120 116 109 102 96 87 79 75 70 49 40 36 22 8 350 335 329 328 328 329 329 328 350 2 350 213 167 135 124 117 110 102 99
138 137 138 143 143 145 144 143 141 141 141 143 139 133 116 113 118 27 297 303 322 330 333 330 322 319 311 310 313 316 319 324 335 317 332 209 161 140 131 122 114 108 101
136 141 145 144 146 151 157 160 160 160 163 176 198 237 270 272 267 257 256 265 284 303 314 308 305 307 307 307 306 309 311 321 324 318 302 200 161 143 135 127 121 112 103
145 149 152 156 165 172 183 185 178 182 194 223 260 273 303 324 308 284 270 266 278 297 304 302 303 308 312 313 310 308 314 324 313 300 278 193 161 150 141 132 126 121 114
156 168 172 171 177 187 199 177 191 231 292 287 290 299 316 306 298 312 295 286 295 304 308 302 303 309 319 319 315 322 322 293 276 270 252 188 165 156 149 143 142 136 129
158 161 165 170 178 182 188 156 150 162 221 306 331 304 12 5 354 355 344 330 326 322 324 316 319 318 312 302 305 306 284 271 264 269 258 192 172 161 156 150 155 148 140
145 151 156 160 166 176 156 145 148 145 147 48 2 60 85 59 35 1 354 323 328 326 320 320 316 316 318 309 294 292 272 211 232 240 246 210 183 178 169 158 167 159 142
147 149 152 147 143 142 128 132 123 138 143 115 47 42 73 76 56 38 14 357 340 331 321 319 323 332 336 340 338 7 359 256 219 216 249 230 214 200 191 181 179 173 156
153 152 144 130 133 122 116 123 126 123 106 77 63 59 73 78 71 55 28 8 352 349 342 332 332 341 332 348 348 352 11 30 154 187 222 250 245 227 207 194 185 180 168
150 143 139 140 124 112 108 107 101 91 92 80 70 60 65 72 75 68 31 4 343 344 359 11 9 12 2 3 350 345 7 5 263 224 216 231 257 256 232 200 189 177 170
148 143 148 139 122 111 102 96 98 91 88 80 71 59 58 63 66 58 32 356 341 3 13 7 13 17 4 360 342 330 342 345 328 235 214 213 232 261 271 198 183 173 166
151 146 140 129 122 112 98 90 84 78 75 79 73 63 55 52 53 59 37 348 357 18 11 0 22 31 359 348 336 335 341 342 318 316 176 208 200 211 222 204 179 176 166
145 138 131 125 117 106 91 75 57 54 53 58 68 72 69 54 51 52 34 5 14 23 7 7 6 11 354 342 359 3 349 346 353 358 295 16 222 204 155 135 134 182 169
140 137 137 133 130 116 102 98 86 67 42 37 28 71 82 64 47 54 34 9 13 17 356 359 17 20 2 10 38 6 352 358 12 6 10 26 44 89 118 125 131 113 167
149 146 141 141 143 136 132 137 139 139 135 130 357 18 32 48 19 47 51 20 7 12 9 13 36 33 354 27 83 60 7 350 348 -0 2 15 27 51 80 133 138 146 153
151 157 153 153 150 143 129 101 74 54 34 18 0 334 311 315 345 31 37 34 20 40 352 343 45 89 18 356 72 125 120 264 318 335 350 5 7 17 313 210 178 180 175
165 157 146 147 145 143 130 122 125 126 156 238 247 273 300 307 297 323 351 17 22 9 323 315 79 121 114 15 357 57 161 170 154 333 333 343 351 354 319 260 210 205 175
154 148 145 139 141 143 135 136 131 137 191 247 287 309 319 319 300 292 315 357 6 330 312 331 23 82 124 142 139 37 62 69 133 152 295 325 344 334 316 266 216 207 193
127 132 132 136 143 144 136 140 147 159 171 169 319 317 316 313 313 308 301 309 321 319 298 288 316 63 123 141 148 139 153 150 184 163 197 279 311 310 317 314 259 224 207